{"data":{"norad_id":65228,"epoch":"2026-09-21T21:46:59.152512Z","epoch_age_seconds":40654,"freshness":"FRESH","line1":"1 65228U 25178A   26264.90762908  .00000021  00000+0  15457-4 0  9995","line2":"2 65228  86.5035 340.9023 0001612 107.2466 252.8845 13.24413528 53116","mean_motion":13.24413528,"eccentricity":0.0001612,"inclination_deg":86.5035,"raan_deg":340.9023,"arg_perigee_deg":107.2466,"mean_anomaly_deg":252.8845,"bstar":1.5457e-5,"rev_number":5311,"period_min":108.72737023266,"perigee_km":1166.6923621418,"apogee_km":1169.1252073028,"semimajor_km":7546.0457847223,"source":"CELESTRAK","updated_at":"2026-09-22T09:00:30.213510Z"}}